Stations météo

Publicité
Dole Tavaux, France (7386): Température de l'air & dewpoint: 20.05.2019 17:00:00 - 26.05.2019 17:00:00 (CEST)Dole Tavaux, France (7386): Température de l'air 5cm: 20.05.2019 17:00:00 - 26.05.2019 17:00:00 (CEST)Dole Tavaux, France (7386): Vitesse du vent & gusts: 20.05.2019 17:00:00 - 26.05.2019 17:00:00 (CEST)Dole Tavaux, France (7386): Direction du vent: 20.05.2019 17:00:00 - 26.05.2019 17:00:00 (CEST)Dole Tavaux, France (7386): reduced air pressure: 20.05.2019 17:00:00 - 26.05.2019 17:00:00 (CEST)Dole Tavaux, France (7386): visibility: 20.05.2019 17:00:00 - 26.05.2019 17:00:00 (CEST)Dole Tavaux, France (7386): Ensoleillement: 20.05.2019 17:00:00 - 26.05.2019 17:00:00 (CEST)Dole Tavaux, France (7386): Quantités de précipitations: 20.05.2019 17:00:00 - 26.05.2019 17:00:00 (CEST)
Date & Time tt [°C] td [°C] tt 5cm [°C] ff [km/h] ff [knt] fx [km/h] fx [knt] dd ppp [hPa] vv [km] sd [min] rr [mm]
26.05.2019 17:00:00 - - - - - - - - - - - -
26.05.2019 16:00:00 22,5 7,1 30,1 9 5 29 16 NNW 1015,8 60 60 0,0
26.05.2019 15:00:00 21,3 7,1 25,5 10 5 25 14 NNE 1016,1 60 53 0,0
26.05.2019 14:00:00 21,2 7,1 25,1 13 7 34 18 NW 1016,7 60 56 0,0
26.05.2019 13:00:00 20,6 9,5 25,9 9 5 27 15 N 1017,1 54 60 0,0
26.05.2019 12:00:00 19,5 9,7 23,8 13 7 37 20 NNE 1017,7 55 60 0,0
26.05.2019 11:00:00 18,1 10,2 22,4 15 8 27 15 N 1018,0 58 60 0,0
26.05.2019 10:00:00 16,8 11,1 22,0 11 6 20 11 N 1018,4 20 60 0,0
26.05.2019 09:00:00 14,7 9,9 18,8 11 6 19 10 NNW 1018,6 60 60 0,0
26.05.2019 08:00:00 13,3 9,5 14,9 10 5 15 8 N 1018,6 60 60 0,0
26.05.2019 07:00:00 12,3 9,3 7,4 7 4 16 8 NNE 1018,7 57 43 0,0
26.05.2019 06:00:00 9,8 8,6 6,9 14 7 17 9 NNE 1018,6 59 0 0,0
26.05.2019 05:00:00 9,8 8,4 6,4 8 4 17 9 N 1018,6 59 0 0,0
26.05.2019 04:00:00 10,7 9,0 7,8 9 5 17 9 NE 1018,6 48 0 0,0
26.05.2019 03:00:00 11,8 9,5 8,6 8 5 14 8 N 1018,4 60 0 0,0
26.05.2019 02:00:00 13,2 9,8 12,4 11 6 18 10 N 1018,5 60 0 0,0
26.05.2019 01:00:00 14,2 9,6 13,1 10 5 19 11 N 1018,8 60 0 0,0
26.05.2019 00:00:00 14,3 9,7 13,5 13 7 25 13 N 1018,9 60 0 0,0
25.05.2019 23:00:00 15,2 10,2 14,5 14 8 24 13 N 1018,5 60 0 0,0
25.05.2019 22:00:00 16,2 10,1 15,6 18 10 39 21 N 1017,8 60 0 0,0
25.05.2019 21:00:00 17,5 10,1 17,0 29 16 44 24 N 1017,0 59 0 0,0
25.05.2019 20:00:00 19,5 8,5 19,2 27 14 42 23 N 1016,1 54 24 0,0
25.05.2019 19:00:00 21,8 6,5 22,3 23 12 37 20 N 1015,4 59 28 0,0
25.05.2019 18:00:00 22,0 9,5 23,6 18 10 34 19 N 1015,1 54 32 0,0
25.05.2019 17:00:00 21,6 9,8 22,5 20 11 37 20 N 1015,1 48 28 0,0
25.05.2019 16:00:00 23,0 9,4 23,2 20 11 40 22 N 1015,0 36 29 0,0
25.05.2019 15:00:00 21,3 10,5 22,7 20 11 35 19 N 1015,3 34 1 0,0
25.05.2019 14:00:00 20,8 11,1 22,2 15 8 28 15 N 1015,7 49 17 0,0
25.05.2019 13:00:00 20,9 10,4 23,5 19 10 31 17 NNW 1016,0 48 40 0,0
25.05.2019 12:00:00 21,7 11,1 27,5 18 10 26 14 N 1016,1 39 60 0,0
25.05.2019 11:00:00 20,5 11,1 25,0 9 5 17 9 N 1016,1 46 60 0,0
25.05.2019 10:00:00 18,7 11,0 22,2 4 2 17 9 N 1016,3 46 60 0,0
25.05.2019 09:00:00 16,4 11,1 20,7 13 7 21 12 N 1016,2 30 60 0,0
25.05.2019 08:00:00 14,6 10,6 14,6 9 5 15 8 N 1016,1 19 60 0,0
25.05.2019 07:00:00 12,4 10,5 8,6 4 2 13 7 NNE 1016,2 30 30 0,0
25.05.2019 06:00:00 11,8 9,5 8,1 7 4 10 6 NW 1015,8 30 0 0,0
25.05.2019 05:00:00 11,9 9,5 8,3 8 4 12 6 NW 1015,5 36 0 0,0
25.05.2019 04:00:00 12,5 9,3 8,9 8 5 14 8 N 1015,2 40 0 0,0
25.05.2019 03:00:00 13,0 9,4 9,2 8 4 14 8 NNE 1015,1 48 0 0,0
25.05.2019 02:00:00 14,2 9,2 11,5 9 5 23 12 N 1015,2 57 0 0,0
25.05.2019 01:00:00 15,8 9,2 14,5 14 8 24 13 N 1015,1 60 0 0,0
25.05.2019 00:00:00 16,4 9,6 14,7 14 7 22 12 N 1014,9 60 0 0,0
24.05.2019 23:00:00 17,7 9,8 16,2 12 7 24 13 N 1014,5 60 0 0,0
24.05.2019 22:00:00 18,6 9,6 17,1 16 8 25 13 N 1014,0 59 0 0,0
24.05.2019 21:00:00 19,7 10,1 17,2 8 4 11 6 NNW 1013,4 58 0 0,0
24.05.2019 20:00:00 20,4 9,6 19,3 9 5 18 10 N 1013,1 20 0 0,0
24.05.2019 19:00:00 22,0 8,5 23,0 16 9 30 16 N 1012,7 58 43 0,0
24.05.2019 18:00:00 23,6 8,4 27,1 14 8 32 17 N 1012,7 60 60 0,0
24.05.2019 17:00:00 23,9 8,3 23,8 15 8 31 17 NNE 1013,1 54 44 0,0
24.05.2019 16:00:00 23,2 8,1 24,3 13 7 27 14 N 1013,6 43 33 0,0
24.05.2019 15:00:00 24,0 9,2 24,5 4 2 25 13 NE 1013,8 55 45 0,0
24.05.2019 14:00:00 23,6 8,8 25,8 6 3 25 13 NNE 1014,2 20 56 0,0
24.05.2019 13:00:00 22,7 10,2 26,8 11 6 26 14 NNE 1014,5 44 51 0,0
24.05.2019 12:00:00 21,8 9,3 28,1 9 5 25 13 NNW 1014,9 45 60 0,0
24.05.2019 11:00:00 20,3 10,7 25,1 3 1 14 7 W 1015,2 35 60 0,0
24.05.2019 10:00:00 17,6 10,5 20,7 6 3 11 6 ENE 1015,3 37 51 0,0
24.05.2019 09:00:00 15,5 11,1 16,3 3 2 8 5 NE 1015,6 20 55 0,0
24.05.2019 08:00:00 12,3 9,8 9,4 3 2 8 5 E 1015,7 20 39 0,0
24.05.2019 07:00:00 9,3 8,4 6,0 6 3 6 4 ENE 1015,6 15 12 0,0
24.05.2019 06:00:00 7,9 7,1 5,9 3 2 8 4 NE 1015,5 16 0 0,0
24.05.2019 05:00:00 9,7 8,5 7,0 2 1 6 3 NE 1015,3 16 0 0,0
24.05.2019 04:00:00 10,9 8,3 8,6 6 3 13 7 N 1015,2 46 0 0,0
24.05.2019 03:00:00 12,3 9,3 9,8 7 4 11 6 N 1015,1 49 0 0,0
24.05.2019 02:00:00 12,3 9,5 10,4 0 0 5 3 N 1015,4 54 0 0,0
24.05.2019 01:00:00 13,1 9,3 10,4 3 1 6 4 NW 1015,7 57 0 0,0
24.05.2019 00:00:00 13,0 9,8 11,4 6 3 10 5 E 1015,7 50 0 0,0
23.05.2019 23:00:00 14,4 9,2 11,9 4 2 7 4 NE 1015,8 33 0 0,0
23.05.2019 22:00:00 15,4 8,2 11,9 7 4 13 7 NNE 1015,6 60 0 0,0
23.05.2019 21:00:00 18,6 8,8 16,2 11 6 21 11 N 1015,3 60 50 0,0
23.05.2019 20:00:00 21,4 7,6 20,9 15 8 22 12 N 1014,8 37 40 0,0
23.05.2019 19:00:00 22,6 7,2 25,0 12 6 23 12 NNE 1014,8 50 60 0,0
23.05.2019 18:00:00 22,9 4,9 26,3 12 7 22 12 N 1015,1 54 60 0,0
23.05.2019 17:00:00 22,8 5,7 28,7 6 3 22 12 W 1015,5 29 60 0,0
23.05.2019 16:00:00 22,8 6,1 28,2 9 5 23 13 N 1015,9 49 60 0,0
23.05.2019 15:00:00 22,2 7,6 29,3 14 8 29 16 NNW 1016,4 29 60 0,0
23.05.2019 14:00:00 21,9 8,0 28,2 12 6 37 20 E 1016,6 60 60 0,0
23.05.2019 13:00:00 21,4 8,6 26,4 13 7 28 15 NNW 1017,2 58 60 0,0
23.05.2019 12:00:00 20,7 5,5 25,2 14 7 29 16 NE 1017,8 57 60 0,0
23.05.2019 11:00:00 18,7 10,5 22,4 9 5 19 11 N 1018,0 60 60 0,0
23.05.2019 10:00:00 17,2 7,5 18,5 11 6 19 11 NE 1018,3 35 60 0,0
23.05.2019 09:00:00 14,5 7,1 16,9 15 8 21 12 ENE 1018,6 60 60 0,0
23.05.2019 08:00:00 12,2 7,1 9,9 4 2 17 9 N 1019,0 40 60 0,0
23.05.2019 07:00:00 8,7 6,1 5,0 9 5 14 8 NE 1018,8 50 40 0,0
23.05.2019 06:00:00 6,6 4,9 4,2 8 5 15 8 NE 1019,0 51 0 0,0
23.05.2019 05:00:00 6,1 4,9 2,0 9 5 14 8 NE 1019,3 40 0 0,0
23.05.2019 04:00:00 6,4 4,9 2,9 9 5 11 6 E 1019,5 36 0 0,0
23.05.2019 03:00:00 6,9 6,0 2,9 5 3 7 4 ENE 1019,7 45 0 0,0
23.05.2019 02:00:00 7,9 5,9 4,1 4 2 6 3 NNE 1020,0 53 0 0,0
23.05.2019 01:00:00 9,0 6,4 4,9 6 3 9 5 NE 1020,0 60 0 0,0
23.05.2019 00:00:00 9,8 5,6 6,6 6 3 9 5 NNE 1019,9 60 0 0,0
22.05.2019 23:00:00 11,1 5,8 8,0 6 3 12 7 NE 1019,9 60 0 0,0
22.05.2019 22:00:00 13,3 5,9 9,7 13 7 16 9 NNE 1019,6 60 0 0,0
22.05.2019 21:00:00 16,2 5,8 14,1 14 8 23 12 NNE 1019,0 54 37 0,0
22.05.2019 20:00:00 18,9 5,0 19,3 11 6 33 18 NNE 1018,5 57 60 0,0
22.05.2019 19:00:00 20,1 3,7 22,5 12 7 28 15 N 1018,5 60 60 0,0
22.05.2019 18:00:00 20,8 2,1 22,5 14 8 34 18 N 1018,6 60 58 0,0
22.05.2019 17:00:00 20,9 4,4 20,7 12 7 29 16 NE 1018,8 50 49 0,0
22.05.2019 16:00:00 20,7 5,9 20,0 15 8 40 21 NNE 1018,8 60 41 0,0
22.05.2019 15:00:00 20,4 5,2 20,0 11 6 35 19 NNE 1018,9 20 36 0,0
22.05.2019 14:00:00 19,6 7,7 21,3 14 7 28 15 NNE 1019,2 55 42 0,0
22.05.2019 13:00:00 18,8 7,2 20,5 13 7 29 16 NNE 1019,7 34 44 0,0
22.05.2019 12:00:00 18,4 8,6 20,8 11 6 27 14 NE 1019,7 20 49 0,0
22.05.2019 11:00:00 17,7 8,8 21,0 14 8 29 16 NE 1019,6 20 60 0,0
22.05.2019 10:00:00 16,5 10,1 18,3 16 9 23 13 NE 1019,7 20 60 0,0
22.05.2019 09:00:00 13,7 9,9 14,6 11 6 20 11 NE 1019,8 19 60 0,0
22.05.2019 08:00:00 10,9 8,8 9,2 6 4 10 6 NE 1019,9 17 49 0,0
22.05.2019 07:00:00 7,5 6,8 3,1 3 2 8 4 NNE 1020,0 18 34 0,0
22.05.2019 06:00:00 5,7 5,1 3,3 5 3 8 4 E 1019,5 4,1 0 0,0
22.05.2019 05:00:00 6,1 4,6 3,9 6 3 9 5 ENE 1019,2 27 0 0,0
22.05.2019 04:00:00 6,8 5,1 4,1 0 0 6 4 N 1019,1 30 0 0,0
22.05.2019 03:00:00 7,8 5,6 4,4 3 1 6 3 NNW 1018,7 33 0 0,0
22.05.2019 02:00:00 8,2 7,1 5,2 5 3 11 6 E 1018,8 31 0 0,0
22.05.2019 01:00:00 10,4 6,0 6,5 9 5 13 7 NNE 1018,6 60 0 0,0
22.05.2019 00:00:00 12,4 6,4 8,9 10 6 16 9 N 1018,3 60 0 0,0
21.05.2019 23:00:00 13,3 7,3 9,7 8 4 18 10 NNE 1018,0 60 0 0,0
21.05.2019 22:00:00 14,1 7,6 10,4 6 4 16 8 N 1017,5 60 0 0,0
21.05.2019 21:00:00 16,4 8,9 13,7 9 5 13 7 N 1016,7 60 40 0,0
21.05.2019 20:00:00 17,8 10,4 17,3 6 3 11 6 NNE 1016,1 60 0 0,0
21.05.2019 19:00:00 18,5 10,1 18,9 6 3 14 8 N 1015,9 60 0 0,0
21.05.2019 18:00:00 18,9 8,8 20,5 10 5 22 12 N 1015,7 55 4 0,0
21.05.2019 17:00:00 19,1 9,3 20,5 11 6 23 12 N 1015,7 60 2 0,0
21.05.2019 16:00:00 18,5 9,6 19,5 13 7 23 13 NNW 1015,8 48 0 0,0
21.05.2019 15:00:00 18,9 9,7 20,8 5 3 25 13 WNW 1015,6 54 1 0,0
21.05.2019 14:00:00 18,2 8,5 22,5 10 5 22 12 WNW 1015,6 51 16 0,0
21.05.2019 13:00:00 17,8 10,2 20,0 9 5 22 12 SW 1015,7 37 39 0,0
21.05.2019 12:00:00 16,3 9,9 18,2 8 4 16 8 WSW 1016,1 20 19 0,0
21.05.2019 11:00:00 14,7 9,5 16,2 7 4 16 9 W 1016,1 19 2 0,0
21.05.2019 10:00:00 13,3 9,9 12,5 7 4 13 7 W 1016,1 12 0 0,0
21.05.2019 09:00:00 12,2 10,3 11,8 9 5 16 9 NNW 1015,8 8 0 0,0
21.05.2019 08:00:00 12,0 10,2 11,6 6 3 11 6 N 1015,3 8 0 0,0
21.05.2019 07:00:00 11,8 10,9 11,0 6 3 12 7 N 1014,8 7 0 0,0
21.05.2019 06:00:00 11,3 11,0 8,1 3 1 5 3 NNE 1014,4 2,5 0 0,0
21.05.2019 05:00:00 11,8 11,2 9,7 4 2 9 5 S 1013,8 2,3 0 0,0
21.05.2019 04:00:00 12,1 11,5 11,5 6 3 9 5 SSW 1013,9 4,3 0 0,2
21.05.2019 03:00:00 12,2 11,7 11,8 5 3 9 5 SW 1013,9 4,6 0 0,0
21.05.2019 02:00:00 12,2 11,6 11,7 6 3 10 6 SSW 1014,0 4,9 0 0,0
21.05.2019 01:00:00 12,1 11,6 11,1 8 4 10 6 SW 1014,0 4,7 0 0,0
21.05.2019 00:00:00 12,0 11,2 11,3 6 3 9 5 SW 1014,0 5 0 0,0
20.05.2019 23:00:00 12,6 11,3 11,6 8 4 11 6 WSW 1013,5 9 0 0,2
20.05.2019 22:00:00 12,9 10,4 12,6 6 3 14 7 W 1013,1 10 0 0,0
20.05.2019 21:00:00 12,9 10,4 12,7 9 5 14 8 W 1012,7 9 0 0,0
20.05.2019 20:00:00 13,3 10,3 13,4 9 5 22 12 W 1012,0 12 0 0,0
20.05.2019 19:00:00 13,6 10,2 14,5 14 7 24 13 NW 1011,7 15 0 0,0
20.05.2019 18:00:00 14,3 10,9 15,7 16 9 29 16 NW 1011,2 15 0 0,0
20.05.2019 17:00:00 14,9 10,7 15,0 14 7 26 14 W 1010,6 15 0 0,0

tt = Température de l'air
td = dewpoint
tt 5cm = Température de l'air 5cm
ff = Vitesse du vent
fx = gusts
dd = Direction du vent
ppp = reduced air pressure
vv = visibility
sd = Ensoleillement
rr = Quantités de précipitations

stations d'obs. à proximité